Regional Weather Roundup
Issued by NWS Wakefield, VA

Home | Current Version | Previous Version | Graphics & Text | Print | Product List | Glossary On
Versions: 1 2 3 4 5 6 7 8 9 10 11 12 13 14 15 16 17 18 19 20 21 22 23 24 25 26 27
000
ASUS41 KAKQ 271615
RWRAKQ

REGIONAL WEATHER ROUNDUP
NATIONAL WEATHER SERVICE WAKEFIELD VA
1200 PM EDT TUE SEP 27 2016

Note: "fair" indicates few or no clouds below 12,000 feet with no
significant weather and/or obstructions to visibility. * = Denotes
station may not report precipitation (e.g., rain,snow,etc.),
thunder or fog.

VAZ042-051-052>054-056-271700-
NORTHERN VIRGINIA

CITY           SKY/WX    TMP DP  RH WIND       PRES   REMARKS
WASH NATIONAL  CLOUDY    70  58  65 VRB6      29.98F
DULLES         PTSUNNY   71  45  39 N9        29.98F
FORT BELVOIR   CLOUDY    69  55  60 N6        29.97F
QUANTICO       PTSUNNY   70  56  61 NE8       29.99F
FREDERICKSBRG* CLOUDY    69  62  81 NE5       29.97F
STAFFORD*      CLOUDY    68  55  62 NE3       30.02S
WARRENTON      PTSUNNY   72  52  48 E7        29.98S
CULPEPER*      MOSUNNY   71  55  57 E3        29.99F
MANASSAS*      PTSUNNY   72  48  43 NE6       29.98F
LEESBURG*      PTSUNNY   72  48  43 CALM      29.98F
WINCHESTER     SUNNY     72  43  35 NW5       29.97F
FRONT ROYAL*   FAIR      70  54  56 E3        29.97F
LURAY*         FAIR      70  55  60 CALM      29.98F
$$

VAZ048-049-060>072-079>083-271700-
CENTRAL AND SOUTH CENTRAL VIRGINIA

CITY           SKY/WX    TMP DP  RH WIND       PRES   REMARKS
RICHMOND       CLOUDY    70  66  87 CALM      29.96F
CHESTERFIELD*  CLOUDY    70  54  56 CALM      29.98F
PETERSBURG*    CLOUDY    72  71  99 NW3       29.98S
HANOVER        CLOUDY    67  64  90 CALM      29.98F
TAPPAHANNOCK*  RAIN      68  68 100 N6        29.98F
QUINTON*       CLOUDY    69  69  99 S5        29.96F
CHARLOTTSVILLE PTSUNNY   73  63  70 CALM      29.97F
GORDONSVILLE*  NOT AVBL
ORANGE*          N/A     70  57  64 CALM      29.99F
LOUISA*        CLOUDY    72  64  78 E5        29.96F
BUMPASS*       CLOUDY    67  65  91 E6        29.97F
FARMVILLE*     CLOUDY    75  66  73 CALM      29.96F
CREWE*         CLOUDY    70  70 100 CALM      29.97F
FORT PICKETT*  CLOUDY    68  68  98 CALM      29.98F
CHASE CITY*    CLOUDY    68  67  95 CALM      29.98F
CLARKSVILLE*   CLOUDY    68  68 100 CALM      29.97F
SOUTH HILL*    CLOUDY    69  68  98 CALM      30.03F
LAWRENCEVILLE* CLOUDY    70  69  98 CALM      29.98S
EMPORIA*       PTSUNNY   72  66  83 CALM      29.98F
$$

VAZ088>098-271700-
SOUTHEAST VIRGINIA

CITY           SKY/WX    TMP DP  RH WIND       PRES   REMARKS
NORFOLK        CLOUDY    75  68  78 CALM      29.96F
VIRGINIA BEACH CLOUDY    75  67  76 SW6       29.96F
NORFOLK NAVAL  CLOUDY    75  69  81 SW3       29.97F
WEST POINT*    CLOUDY    70  69  95 CALM      29.98F
SALUDA*        CLOUDY    70  69  98 CALM      29.97F
NEWPORT NEWS   CLOUDY    75  67  76 W6        29.97F
LANGLEY AFB    PTSUNNY   75  68  78 W6        29.96F HAZE
FORT EUSTIS    CLOUDY    75  68  77 VRB2      29.95F
WILLIAMSBURG*  CLOUDY    73  70  88 NW3       29.98S
HR EXEC AP*    FAIR      75  70  83 SW5       29.98F
FRANKLIN*      CLOUDY    74  67  77 CALM      29.97F
US460-WAKEFLD  CLOUDY    73  65  75 CALM      29.97F
$$

VAZ020-022-025-037-045-271700-
WEST CENTRAL AND SOUTHWEST VIRGINIA

CITY           SKY/WX    TMP DP  RH WIND       PRES   REMARKS
STAUNTON*      MOSUNNY   68  56  65 CALM      30.00F
WAYNESBORO*    FAIR      70  57  63 W3        29.99F
HOT SPRINGS VA SUNNY     60  39  45 W7        30.05S
LYNCHBURG      MOSUNNY   72  64  76 VRB5      29.99F
DANVILLE       CLOUDY    69  68  96 VRB3      29.98F
SOUTH BOSTON*  CLOUDY    69  68  96 CALM      29.98F
MARTINSVILLE   CLOUDY    71  65  80 CALM      30.01F
ROANOKE        MOSUNNY   75  62  64 VRB5      29.99F
BLACKSBURG     MOSUNNY   70  62  74 SW6       30.05F
DUBLIN*        MOSUNNY   73  62  68 SW6       30.03F
MARION*        CLOUDY    68  62  80 W9        30.06F
HILLSVILLE*    CLOUDY    67  63  86 CALM      30.04S
RICHLANDS*     PTSUNNY   63  58  83 NW3       30.05F
WISE*          MOSUNNY   64  36  34 N3        30.07F
ABINGDON*      CLOUDY    69  62  79 SW3       30.03F
$$

MDZ021>025-VAZ099-100-271700-
SOUTHERN MARYLAND AND THE DELMARVA PENINSULA

CITY           SKY/WX    TMP DP  RH WIND       PRES   REMARKS
PATUXENT RIVER LGT RAIN  66  63  90 NE5       29.98S
BAY BRIDGE APT CLOUDY    68  61  77 MISG      29.96F
LEONARDTOWN    CLOUDY    64  61  88 CALM      29.99F
DOVER          DRIZZLE   66  66 100 SW1       29.96F
GEORGETOWN     LGT RAIN  68  65  90 N6        29.97F
EASTON         CLOUDY    68  64  88 NE3       30.00F
CAMBRIDGE      CLOUDY    64  61  88 CALM      29.97F
SALISBURY      CLOUDY    70  65  84 N5        29.96F
OCEAN CITY     CLOUDY    71  65  81 CALM      29.97S
WALLOPS ISLAND CLOUDY    73  70  90 CALM      29.97S
ACCOMACK*      DRIZZLE   73  67  83 SW5       29.97S
$$

NCZ012>017-030>032-271700-
NORTH CENTRAL AND EASTERN NORTH CAROLINA

CITY           SKY/WX    TMP DP  RH WIND       PRES   REMARKS
ROANOKE RAPIDS FAIR      73  68  83 CALM      29.98S
RALEIGH        CLOUDY    74  67  78 W5        29.99S
ELIZABETH CITY CLOUDY    78  69  73 SW5       29.97F
AHOSKIE*       CLOUDY    73  69  86 CALM      29.98S
EDENTON*       CLOUDY    79  66  65 W3        29.99S
CURRITUCK*     CLOUDY    79  68  69 SW5       29.98F
KILL DEVIL HLS CLOUDY    80  73  80 S3        29.97F
MANTEO         CLOUDY    77  70  77 SW5       29.99F
CAPE HATTERAS  CLOUDY    80  70  71 SE6       29.97F
TARBORO*       CLOUDY    75  69  81 CALM      29.98F
GOLDSBORO      CLOUDY    80  72  77 VRB2      29.95F
WASHINGTON     CLOUDY    77  69  76 CALM      29.98F
GREENVILLE     CLOUDY    79  70  73 CALM      29.99F
NEW BERN       CLOUDY    81  68  64 SE8       29.97F
WILMINGTON     CLOUDY    82  70  66 NE3       29.95F
$$

VAZ048-271700-
ELSEWHERE

CITY           SKY/WX    TMP DP  RH WIND       PRES   REMARKS
HARRISBURG PA  MOSUNNY   69  52  54 W3        29.96F
BALTIMORE      PTSUNNY   71  55  56 VRB5      29.97F
ANNAPOLIS      CLOUDY    70  62  76 NW3       29.96F
ANDREWS AFB    PTSUNNY   68  59  73 N6        29.97F
PHILADELPHIA   CLOUDY    71  57  61 NW3       29.96F
HENDERSON NC   HVY RAIN  66  64  94 CALM      29.99S
GREENSBORO     CLOUDY    71  69  93 W7        29.98F
ROCKY MOUNT    CLOUDY    80  70  71 CALM      29.97F
$$

VAZ100-271700-
MARINE

STATION/POSITION TIME  TEMP    WIND        PRES    WAVE   SWELL
                       AIR SEA DIR/SP/G            HT/PER HT/PER
                 (UTC) (F)     (DEG/KT/KT) (MB)    (FT/S) (FT/S)
BRANDYWINE LGT   1548   67     360/ 16/ 18   N/A
CAPE MAY NJ      1548   68 72  330/  8/ 11 1014.2F
LEWES DE         1548   69 72  320/  9/ 11 1014.6F
OCEAN-CITY-INLET 1548   69 73   20/  2/  3 1015.1F
WACHAPREAGUE VA  1548   73 73  240/  4/  6 1014.7F
THOMAS POINT MD  1600   67 74  310/  4/  5 1015.9F
GOOSES REEF MD   1600   71 74   20/  6/  8 1015.3    1/ 2
COVE POINT MD    1548   67      60/  6/ 11 1015.5F
SOLOMONS ISLAND  1548   66 75  360/  3/  5   N/A
BISHOPS HEAD MD  1548   68 70   20/  4/  6 1015.2S
PINEY POINT MD   1548           30/  5/  7   N/A
POTOMAC MD       1600   69 75   40/  6/  8 1014.0    1
CAMBRIDGE MD     1548   66 74   30/  4/  5 1014.2S
LEWISETTA VA     1542   68 74   50/  5/  9 1014.7F
RAPPAHANNOCK LGT 1548          260/  9/ 11 1015.3F
STINGRAY PT      1550   72     200/  6/  8 1015.2F
YORK RVR RNG VA  1548   74     270/  6/  7 1014.3F
YORKTOWN VA      1548   73 76  280/  4/  5 1014.3F
JAMESTOWN VA     1600   72 77  310/  4/  6   N/A     0
DOMINION TERM VA 1548   73     230/  3/  4 1014.8F
KIPTOPEKE VA     1548      75  260/  7/  8   N/A
CHES BAY BRIDGE  1548   73 76  250/  8/ 10 1014.6F
CAPE HENRY VA    1548   74     250/  3/  4   N/A
WILLOUBY STN VA  1548   73     250/  4/  5   N/A
CAPE HENRY BUOY  1542      75                N/A     3/ 5
1ST LANDING BUOY 1600   74 75  300/  8/ 10 1014.6    1/ 5
CAPE CHARLES BUO 1526      76                N/A     2/ 5
OFFSHORE WE BUOY 1521      75                N/A     3/ 5   2/12
64NM E OF VA BCH 1550   75 73  170/  8/ 10 1015.2F   3/ 5   3/ 5
DUCK PIER NC     1548   78 76  150/  6/  6 1014.5F
44056 DUCK FRF   1511      76                N/A     3/13   2/13
OREGON INLET NC  1548   75 76  180/  4/  5 1015.3F
HATTERAS NC      1548   78 77  140/  4/  7 1014.5F
DIAMOND SHLS NC  1550   78 84  140/ 14/ 16 1014.5F   4/ 5   2/ 7
CAPE LOOKOUT NC  1600   79     100/  8/  9 1014.0F
$$




USA.gov is the U.S. government's official web portal to all federal, state and local government web resources and services.